Tracking 27188 objects as of 2-Apr-2023
HD Live streaming from Space Station
objects crossing your sky now

STARLINK-3843

Track STARLINK-3843 now!
10-day predictions
STARLINK-3843 is classified as:


NORAD ID: 52341
Int'l Code: 2022-045L
Perigee: 546.0 km
Apogee: 547.8 km
Inclination: 53.2 °
Period: 95.4 minutes
Semi major axis: 6917 km
RCS: Unknown
Launch date: April 29, 2022
Source: United States (US)
Launch site: AIR FORCE EASTERN TEST RANGE (AFETR)
Your satellite tracking list
Your tracking list is empty




NASA's NSSDC Master Catalog

Two Line Element Set (TLE):
1 52341U 22045L   23091.73500877  .00010281  00000-0  66325-3 0  9997
2 52341  53.2177 345.7503 0001297  85.5262 274.5878 15.08831574 53669
Source of the keplerian elements: AFSPC